Location: Unspecified
(17.6330°N, 0.0000°E)
Time: 00:43:52
(UTC+00:00)

Vanguard 1 - Visible Passes

Search period start: 27 June 2019 00:00
Search period end: 07 July 2019 00:00
Orbit: 654 x 3830 km, 34.2° (Epoch: 24 June)

Date Brightness Start Highest point End Pass type
(mag) Time Alt. Az. Time Alt. Az. Time Alt. Az.
27 Jun 12.6 00:31:34 59° W 00:37:40 77° NNW 00:54:48 10° NE visible
27 Jun 12.8 02:45:45 10° W 03:04:57 43° NNW 03:16:27 10° NE visible
27 Jun 13.2 19:50:32 10° S 20:05:28 26° SE 20:10:39 24° ESE visible
27 Jun 12.7 22:09:37 10° SW 22:35:03 63° ESE 22:52:38 10° ENE visible
28 Jun 12.7 00:35:57 10° WSW 00:59:35 66° NNW 01:16:02 10° NE visible
28 Jun 12.8 03:09:05 10° WNW 03:27:07 40° NNW 03:37:52 10° ENE visible
28 Jun 13.0 20:09:56 10° SSW 20:26:56 34° SE 20:46:21 10° E visible
28 Jun 12.6 22:30:40 10° SW 22:53:34 80° SE 23:14:16 10° ENE visible
29 Jun 12.8 00:58:35 10° W 01:21:36 58° NNW 01:37:18 10° NE visible
29 Jun 12.8 03:32:19 10° WNW 03:49:22 39° N 03:59:23 10° ENE visible
29 Jun 12.9 20:29:52 10° SSW 20:48:19 44° SE 21:09:21 10° ENE visible
29 Jun 12.6 22:52:05 10° WSW 23:15:20 88° NW 23:35:44 10° ENE visible
30 Jun 12.9 01:21:31 10° W 01:43:48 51° NNW 01:58:39 10° NE visible
30 Jun 12.8 03:55:18 10° WNW 04:11:35 39° N 04:21:00 10° ENE visible
30 Jun 13.4 18:34:36 10° SSE 18:44:29 17° SE 18:56:12 10° E visible
30 Jun 12.7 20:50:12 10° SSW 21:09:42 56° SE 21:31:46 10° ENE visible
30 Jun 12.7 23:13:50 10° WSW 23:37:16 76° NNW 23:57:09 10° ENE visible
01 Jul 13.0 01:44:41 10° W 02:06:09 47° NNW 02:20:06 10° ENE visible
01 Jul 12.6 04:17:56 10° WNW 04:33:44 42° N 04:42:39 10° ENE visible
01 Jul 13.2 18:52:51 10° S 19:05:50 24° SE 19:22:04 10° E visible
01 Jul 12.7 21:10:52 10° SW 21:31:10 68° SE 21:53:47 10° ENE visible
01 Jul 12.9 23:35:56 10° WSW 23:59:20 67° NNW 00:18:33 10° NE visible
02 Jul 13.0 02:07:56 10° WNW 02:28:36 44° N 02:41:41 10° ENE visible
02 Jul 12.4 04:40:15 10° WNW 04:55:46 47° NNE 05:04:15 10° E visible
02 Jul 13.0 19:12:09 10° SSW 19:27:01 34° SE 19:46:12 10° ENE visible
02 Jul 12.7 21:31:51 10° SW 21:52:45 81° SE 22:15:33 10° ENE visible
02 Jul 13.0 23:58:23 10° W 00:21:36 59° NNW 00:40:00 10° NE visible
03 Jul 13.0 02:31:07 10° WNW 02:51:05 43° N 03:03:22 10° ENE visible
03 Jul 12.1 05:02:19 10° NW 05:17:37 56° NNE 05:25:44 10° E visible
03 Jul 12.8 19:32:02 10° SSW 19:48:08 44° SE 20:09:23 10° ENE visible
03 Jul 12.7 21:53:10 10° WSW 22:14:32 87° NNW 22:37:11 10° ENE visible
04 Jul 13.1 00:21:08 10° W 00:44:04 53° NNW 01:01:33 10° ENE visible
04 Jul 12.9 02:54:05 10° WNW 03:13:31 44° N 03:25:08 10° ENE visible
04 Jul 12.7 19:52:19 10° SSW 20:09:18 56° SE 20:31:56 10° ENE visible
04 Jul 12.8 22:14:47 10° WSW 22:36:31 76° NNW 22:58:46 10° ENE visible
05 Jul 13.2 00:44:06 10° W 01:06:40 49° NNW 01:23:14 10° ENE visible
05 Jul 12.8 03:16:46 10° WNW 03:35:52 48° N 03:46:51 10° E visible
05 Jul 12.6 20:12:55 10° SW 20:30:36 69° SE 20:54:06 10° ENE visible
05 Jul 13.0 22:36:44 10° WSW 22:58:43 66° NNW 23:20:21 10° ENE visible
06 Jul 13.2 01:07:09 10° WNW 01:29:23 47° N 01:45:01 10° ENE visible
06 Jul 12.5 03:39:10 10° WNW 03:58:03 54° NNE 04:08:31 10° E visible
06 Jul 12.6 20:33:50 10° SW 20:52:07 82° SE 21:16:01 10° ENE visible
06 Jul 13.1 22:59:00 10° W 23:21:10 59° NNW 23:42:01 10° ENE visible
